Weather in Borisovskiy

Russia / Tver Oblast     57°39′40″N   34°09′28″E
В апреле 2022 года жителям России запретили посещать сайт meteo.paraplan.net по решению Генеральной прокуратуры. Аудитория сайта уменьшилась в 10 раз. Владельцы сайта не видят смысла в поддержке погодного сервера в таких условиях. Сайт будет закрыт в октябре.
temp.,
°C
wind,
m/s
gust,
m/s
humid.,
%
clouds,
%
prec.,
mm/h
press.,
hPa
HPBL,
m
25 september, sun
sun2500:00+6nnw51296100 2.6 1002662
03:00+6nnw51197100 4.8 1001590
06:00+6nnw41097100 0.7 1002554
09:00+7n3898100 1.6 1003568
12:00+9ene2484100 0.2 1004621
15:00+10ene237597 0.3 1005637
18:00+9ne1186100 0.1 100611
21:00+8e119299 0.6 100614
26 september, mon
mon2600:00+7ene1192100 0.3 100723
03:00+7ese1193100 0.4 100814
06:00+7w1194100 0.0 100836
09:00+7wnw2495100 0.1 1008192
12:00+9w238685 0.1 1009542
15:00+10w347576 0.3 1009901
18:00+8wnw238085 0.1 101075
21:00+6nw228997 0.1 101125
27 september, tue
tue2700:00+5wnw2391100 0.0 101170
03:00+6wnw2490100 0.0 1011128
06:00+6nw2494100 0.0 1010174
09:00+7nw2496100 0.4 1010206
12:00+7ene2596100 0.8 1011405
15:00+7ene2596100 1.3 1011337
18:00+7e259596 0.1 1011285
21:00+7e2698100 0.1 1012319
28 september, wed
wed2800:00+6e3996100 0.0 1012376
03:00+6e399684 0.1 1012365
06:00+7e41097100 1.4 1011619
09:00+7e51191100 2.1 1010615
12:00+7ene51289100 0.0 1009886
15:00+7ene61393100 1.5 1006948
18:00+7e61393100 1.4 10051002
21:00+6e51395100 3.4 1004792
29 september, thu
thu2900:00+6e51296100 2.6 1004639
03:00+6e41197100 5.0 1004554
06:00+6e3898100 3.4 1005459
09:00+7ese2598100 3.9 1006301
12:00+9sw2489100 0.0 1009618
15:00+11sw3478100 0.1 1011834
18:00+9s269062 0.0 1013236
21:00+6sse269665 0.0 1015117